[[{"header":{"parameterUnit":"m.s-1","parameterCategory":1,"la1":30.2991,"la2":30.254,"lo1":-89.0895,"lo2":-89.0444,"dy":0.0017,"dx":0.0017,"nx":28,"ny":28,"refTime":"2025-06-14T09:00:00:Z","depth":0,"parameterNumber":2,"parameterNumberName":"U-component_of_WINDS"},"data":[0,0,0,0,0,0,0,0,0,0,0,0,0,0,0,0,0,0,0,0,0,0,0,0,0,0,0,0,0,0,0,0,0,0,0,0,0,0,0,0,0,0,0,0,0,0,0,0,0,0,0,0,0,0,0,0,0,0,0.5064,0.5064,0,0.506,0.506,0.506,0.5041,0.504,0.504,0.504,0.5034,0.5034,0.5035,0,0,0,0,0,0,0,0,0,0,0,0,0,0.5053,0.5053,0.5064,0.5064,0.5064,0.506,0.506,0.506,0.5041,0.504,0.504,0.5039,0.5034,0.5034,0.5035,0,0,0,0,0,0,0,0,0,0,0,0,0,0.5054,0.5053,0.5064,0.5054,0.5053,0.506,0.506,0.506,0.5041,0.504,0.504,0.5039,0.5034,0.5034,0.5035,0.5051,0,0,0.5036,0.5036,0,0,0,0,0,0,0,0,0.5054,0.5055,0.5056,0.5055,0.5054,0.505,0.5054,0.5057,0.5041,0.5046,0.504,0.5039,0.504,0.504,0.5041,0.5051,0.505,0.5036,0.5036,0.5036,0.5037,0,0,0,0,0,0,0,0.5054,0.5055,0.5063,0.5056,0.5055,0.5049,0.5048,0.5055,0.5047,0.5045,0.5044,0.5044,0.5039,0.504,0.504,0.505,0.5036,0.5036,0.5037,0.5037,0.5071,0.5071,0,0,0,0,0,0,0.5056,0.5055,0.5063,0.5062,0.5052,0.505,0.5049,0.5052,0.5046,0.5045,0.5044,0.5043,0.504,0.504,0.504,0.5057,0.5036,0.5037,0.5037,0.507,0.5071,0.5072,0,0,0,0,0,0,0.5055,0.5056,0.5063,0.5058,0.5059,0.5051,0.5054,0.5052,0.5053,0.5046,0.5044,0.5047,0.5039,0.5039,0.5048,0.5056,0.5037,0.5037,0.5069,0.507,0.5071,0.5092,0,0,0,0,0,0,0.5055,0.5057,0.5063,0.5058,0.5059,0.5072,0.5055,0.5053,0.5054,0.5052,0.5048,0.5046,0.5039,0.5047,0.5048,0.5057,0.5038,0.5068,0.507,0.5071,0.509,0.5093,0.5096,0,0,0,0,0,0.5055,0.5069,0.5064,0.5065,0.5067,0.5072,0.5072,0.5064,0.5055,0.5061,0.5056,0.5046,0.5055,0.5048,0.5049,0.5058,0.5068,0.5069,0.5071,0.5089,0.5093,0.5096,0,0,0,0,0,0,0.5075,0.5069,0.5062,0.5076,0.5075,0.5069,0.5077,0.5068,0.5069,0.5067,0.5056,0.5055,0.5065,0.5062,0.5055,0.5072,0.506,0.5062,0.5073,0.5077,0.508,0.508,0.5038,0,0,0,0,0,0.5082,0.5087,0.508,0.5093,0.5093,0.5085,0.5087,0.508,0.5078,0.5078,0.5073,0.5071,0.5073,0.5075,0.5077,0.509,0.5087,0.5096,0.5099,0.5101,0.5103,0.5107,0.511,0.5076,0.5076,0.5076,0,0,0.5094,0.5091,0.5095,0.5097,0.5095,0.51,0.5084,0.5091,0.5093,0.5078,0.5086,0.5082,0.5079,0.5089,0.5094,0.5087,0.5111,0.5103,0.5105,0.5105,0.5109,0.5112,0.5115,0.5077,0.5077,0.5077,0,0,0.512,0.5119,0.5128,0.5126,0.5124,0.5118,0.5121,0.5116,0.5113,0.512,0.5108,0.5111,0.5116,0.5113,0.5113,0.5135,0.5126,0.5136,0.5151,0.5156,0.5158,0.516,0.5167,0.517,0.5138,0.5138,0.5138,0,0.5136,0.5143,0.5134,0.514,0.514,0.5127,0.5135,0.5134,0.5132,0.5132,0.5126,0.513,0.5127,0.5135,0.5141,0.5141,0.5142,0.5137,0.5159,0.5161,0.5163,0.5169,0.5172,0.5139,0.5139,0.5139,0.5139,0,0.5162,0.5167,0.5174,0.5173,0.5174,0.5182,0.5172,0.5175,0.5168,0.5162,0.5169,0.5165,0.5164,0.5166,0.516,0.5173,0.5169,0.5161,0.5148,0.5167,0.5173,0.5175,0.5141,0.514,0.514,0.514,0,0,0.5201,0.5193,0.5196,0.5194,0.5189,0.5193,0.5199,0.5199,0.52,0.5199,0.5202,0.5206,0.5197,0.5197,0.519,0.5194,0.521,0.5185,0.5184,0.5188,0.5223,0.5228,0.5231,0.5204,0.5204,0.5205,0.5222,0,0.5223,0.5234,0.5225,0.5237,0.524,0.5227,0.5232,0.5229,0.5224,0.5225,0.5219,0.5221,0.5211,0.521,0.5214,0.5207,0.5216,0.5206,0.5206,0.5206,0.5206,0.5234,0.5241,0.5258,0.5225,0.5225,0.5225,0,0.5252,0.5252,0.5264,0.5257,0.5258,0.5263,0.5261,0.5263,0.5259,0.5254,0.5253,0.5244,0.5248,0.5236,0.5241,0.5234,0.5233,0.523,0.523,0.5229,0.5216,0.5233,0.5263,0.5266,0.5229,0.5229,0.5228,0,0.5277,0.528,0.5287,0.5286,0.5278,0.5282,0.5279,0.5274,0.5274,0.5272,0.5271,0.527,0.5269,0.5268,0.5258,0.5251,0.5263,0.5251,0.5259,0.5259,0.5262,0.5262,0.5291,0.5263,0.5263,0.5263,0.5263,0,0.5303,0.5311,0.5298,0.5302,0.5309,0.5298,0.5306,0.5301,0.5297,0.5299,0.5287,0.5289,0.5277,0.5277,0.527,0.5274,0.5274,0.527,0.5267,0.527,0.527,0.5269,0.5267,0.5264,0.5264,0.5264,0.5263,0,0.5332,0.5324,0.5331,0.5323,0.5321,0.5326,0.5319,0.5322,0.5316,0.5318,0.5318,0.5308,0.5308,0.5298,0.5296,0.5291,0.5297,0.5294,0.5299,0.5297,0.5305,0.5304,0.5334,0.5336,0.5308,0.5308,0.5308,0,0.5349,0.5354,0.5347,0.5347,0.5345,0.5346,0.5346,0.5335,0.5335,0.533,0.5333,0.5331,0.533,0.533,0.5322,0.5319,0.5315,0.5325,0.5314,0.5316,0.5313,0.5312,0.5312,0.5327,0.5328,0.5328,0.5328,0,0.5379,0.5374,0.5374,0.5373,0.5372,0.537,0.5368,0.5369,0.5357,0.5357,0.5356,0.5355,0.5352,0.5351,0.5347,0.5342,0.5333,0.5332,0.5333,0.5336,0.5338,0.5335,0.5304,0.5331,0.5331,0.5331,0.533,0.533,0.5401,0.5405,0.5399,0.5399,0.5396,0.5393,0.5395,0.5389,0.5388,0.5385,0.5379,0.5379,0.5373,0.5367,0.5363,0.5362,0.5357,0.5359,0.5359,0.536,0.5361,0.5339,0.5362,0.5361,0.5361,0.5361,0.5361,0,0.543,0.5425,0.5425,0.5421,0.5421,0.5412,0.5408,0.5408,0.5409,0.5404,0.5402,0.5401,0.5399,0.539,0.5387,0.5388,0.5383,0.5387,0.5386,0.5385,0.5367,0.5365,0.5391,0.5391,0.5391,0.5391,0.5391,0.5391,0.5444,0.5449,0.5443,0.5445,0.5441,0.5441,0.5439,0.5436,0.5432,0.5431,0.5429,0.5424,0.5417,0.5413,0.541,0.5407,0.5406,0.5411,0.5407,0.539,0.5387,0.5384,0.5383,0.5411,0.5411,0.5426,0.5426,0.5426]},{"header":{"parameterUnit":"m.s-1","parameterCategory":1,"la1":30.2991,"la2":30.254,"lo1":-89.0895,"lo2":-89.0444,"dy":0.0017,"dx":0.0017,"nx":28,"ny":28,"refTime":"2025-06-14T09:00:00:Z","depth":0,"parameterNumber":3,"parameterNumberName":"V-component_of_WINDS"},"data":[0,0,0,0,0,0,0,0,0,0,0,0,0,0,0,0,0,0,0,0,0,0,0,0,0,0,0,0,0,0,0,0,0,0,0,0,0,0,0,0,0,0,0,0,0,0,0,0,0,0,0,0,0,0,0,0,0,0,2.8605,2.8606,0,2.8695,2.8696,2.8697,2.8638,2.8635,2.8632,2.863,2.8722,2.8726,2.8731,0,0,0,0,0,0,0,0,0,0,0,0,0,2.8383,2.8387,2.8605,2.8607,2.8608,2.8695,2.8696,2.8697,2.8638,2.8635,2.8632,2.8628,2.872,2.8726,2.8732,0,0,0,0,0,0,0,0,0,0,0,0,0,2.8477,2.8389,2.8605,2.8589,2.8588,2.8694,2.8696,2.8697,2.8639,2.8635,2.8631,2.8627,2.8718,2.8725,2.8733,2.886,0,0,2.8755,2.8759,0,0,0,0,0,0,0,0,2.8471,2.8485,2.859,2.859,2.859,2.8651,2.8651,2.8752,2.864,2.862,2.863,2.8625,2.8701,2.871,2.8736,2.8865,2.8868,2.8756,2.8761,2.8764,2.8766,0,0,0,0,0,0,0,2.8465,2.8481,2.8641,2.8592,2.8591,2.8576,2.8585,2.867,2.8682,2.8621,2.8617,2.8628,2.87,2.8729,2.8737,2.887,2.8756,2.8763,2.8767,2.877,2.9105,2.911,0,0,0,0,0,0,2.846,2.8476,2.8638,2.8643,2.8519,2.8584,2.8594,2.8635,2.8681,2.8684,2.8632,2.8625,2.8718,2.8729,2.874,2.8891,2.8764,2.8771,2.8775,2.9101,2.9106,2.9111,0,0,0,0,0,0,2.8455,2.8475,2.8634,2.8558,2.8578,2.8592,2.8639,2.8639,2.8667,2.8689,2.8691,2.8658,2.8715,2.873,2.883,2.8894,2.8774,2.8781,2.9096,2.9103,2.9109,2.9195,0,0,0,0,0,0,2.8449,2.8474,2.8523,2.856,2.8582,2.8723,2.8643,2.8644,2.868,2.8673,2.8715,2.8718,2.8713,2.8819,2.8838,2.8902,2.8787,2.909,2.9099,2.9107,2.9186,2.9204,2.9218,0,0,0,0,0,2.8441,2.8544,2.8525,2.8545,2.8643,2.8727,2.874,2.8732,2.8686,2.8735,2.8748,2.8716,2.8884,2.883,2.885,2.8917,2.9086,2.9096,2.9106,2.9179,2.92,2.9218,0,0,0,0,0,0,2.8514,2.8548,2.8528,2.8646,2.8684,2.8717,2.8779,2.8755,2.8807,2.8798,2.8786,2.8796,2.8901,2.8919,2.8859,2.9042,2.8978,2.8992,2.9026,2.9046,2.9062,2.9055,2.8793,0,0,0,0,0,2.8544,2.8609,2.8635,2.8737,2.8757,2.8765,2.8801,2.8791,2.883,2.8846,2.8867,2.8906,2.8967,2.9008,2.9066,2.9189,2.9196,2.9245,2.9261,2.9274,2.9286,2.9351,2.9372,2.9144,2.9144,2.9144,0,0,2.8606,2.8633,2.8675,2.8752,2.878,2.8847,2.8778,2.8853,2.8902,2.8858,2.8953,2.897,2.9013,2.9125,2.9175,2.9143,2.9351,2.9286,2.9297,2.9302,2.9363,2.9385,2.9404,2.9151,2.915,2.9148,0,0,2.8753,2.878,2.8866,2.8896,2.8939,2.8944,2.8965,2.9001,2.901,2.9106,2.9073,2.9132,2.9238,2.9269,2.9299,2.9456,2.9428,2.9475,2.9558,2.9621,2.9639,2.9655,2.971,2.973,2.9488,2.9488,2.9488,0,2.8824,2.8924,2.8914,2.899,2.9025,2.8987,2.9073,2.9103,2.9163,2.9187,2.9151,2.9282,2.9308,2.9426,2.9464,2.949,2.9512,2.947,2.9638,2.9653,2.9668,2.972,2.9741,2.9493,2.9493,2.9492,2.9492,0,2.9009,2.9079,2.9143,2.9202,2.9243,2.9325,2.9326,2.9369,2.9356,2.9364,2.9461,2.9491,2.9553,2.9581,2.957,2.9697,2.9675,2.9639,2.9573,2.9695,2.9744,2.9764,2.9501,2.9499,2.9497,2.9496,0,0,2.9205,2.9255,2.9279,2.9304,2.9349,2.9402,2.9481,2.9541,2.9578,2.9621,2.9686,2.9776,2.9742,2.9776,2.9767,2.9823,2.9943,2.9779,2.978,2.9807,3.0083,3.011,3.0133,2.9925,2.9929,2.9932,3.0079,0,2.9353,2.949,2.9483,2.9612,2.9675,2.9639,2.9708,2.9742,2.9752,2.9806,2.9817,2.988,2.9831,2.9851,2.9904,2.9917,2.9998,2.9907,2.9985,2.9988,2.9974,3.0159,3.0187,3.0325,3.0098,3.0102,3.0104,0,2.9544,2.9592,2.9727,2.9761,2.9787,2.9849,2.9902,2.9956,2.9994,2.9996,3.0034,3.0016,3.0094,3.0028,3.0136,3.0074,3.0105,3.0116,3.0121,3.0127,3.0052,3.0169,3.0369,3.0389,3.0134,3.0132,3.0129,0,2.9671,2.977,2.9863,2.9886,2.9928,2.9971,2.9991,3.0025,3.0061,3.0108,3.0131,3.0187,3.0218,3.0261,3.0258,3.021,3.0367,3.0301,3.0371,3.0371,3.0405,3.0403,3.0612,3.0428,3.0427,3.0427,3.0427,0,2.9837,2.992,2.992,2.9977,3.0069,3.006,3.0151,3.0166,3.0196,3.0255,3.0228,3.0284,3.0277,3.0333,3.0331,3.042,3.0435,3.0438,3.0437,3.044,3.0439,3.046,3.045,3.0433,3.0431,3.043,3.0429,0,2.9994,2.9997,3.0096,3.0127,3.0137,3.0203,3.0229,3.0283,3.029,3.0364,3.0381,3.0392,3.0456,3.0458,3.0532,3.0531,3.0639,3.0627,3.0626,3.0623,3.0692,3.0685,3.0921,3.0951,3.0749,3.0751,3.0752,0,3.0099,3.0162,3.0199,3.0236,3.0258,3.0319,3.0355,3.0348,3.0387,3.0434,3.0482,3.0543,3.0592,3.0696,3.0711,3.0767,3.0755,3.0834,3.0763,3.0764,3.0755,3.075,3.0756,3.0847,3.085,3.0852,3.0853,0,3.0284,3.0282,3.0335,3.0389,3.0433,3.0475,3.0514,3.0546,3.0543,3.0588,3.0653,3.0691,3.0766,3.0827,3.0881,3.0901,3.0877,3.0875,3.0894,3.0898,3.0894,3.0895,3.0662,3.087,3.0868,3.0867,3.0866,3.0865,3.0417,3.0471,3.0505,3.0565,3.0593,3.063,3.0681,3.0694,3.0748,3.0808,3.08,3.0872,3.0907,3.0977,3.1001,3.1057,3.103,3.1058,3.1065,3.1071,3.1078,3.0886,3.1067,3.1067,3.1066,3.1066,3.1066,0,3.0599,3.0619,3.0674,3.0729,3.0776,3.0748,3.079,3.0831,3.0894,3.0929,3.0977,3.1051,3.111,3.1128,3.1185,3.1226,3.1216,3.1241,3.1238,3.1242,3.11,3.1077,3.1248,3.1248,3.1248,3.1248,3.1248,3.1248,3.0699,3.0788,3.079,3.0892,3.0912,3.0982,3.1007,3.1041,3.1068,3.1152,3.12,3.1212,3.1239,3.1298,3.135,3.1354,3.1375,3.1405,3.1404,3.1271,3.1252,3.1235,3.1213,3.141,3.141,3.1541,3.1542,3.1543]}]]